DELTA 1 DEB, 10714

Orbit data source: Space-Track

DELTA 1 DEB, 10714 is space debris in LEO originally from a launch on Thu, 29 Jul 1976 UTC launched from the Air Force Western Test Range (AFWTR). Debris objects in space refer to the collection of defunct objects orbiting the Earth. Examples of debris include non-operational satellites, rocket bodies, and fragments generated from explosions, collisions, or faulty payload assembly.

Loading next visibility...
Identifier
10714, 1976-077AK
Orbit
LEO
Country
Flag of USUS
Related business
Manufacturer
Unknown
Mission
Spacecraft
Bus & Motor
Unknown
Mass
Unknown
Launch date (UTC)
1976-07-29 (50 years ago)
Launch vehicle
Unknown
Launch site
Air Force Western Test Range (AFWTR)
Object type
Payload
Rocket body
Debris
Shape & HBR
Unknown shape, 0.1 m
Radar Cross Section
Medium (>0.1 m² and <1 m²)

Expand to show TLE details & history
Last TLE update: 1 day ago

TLE from 1 day ago
0 DELTA 1 DEB
1 10714U 76077AK  26255.19549917  .00000412  00000-0  65542-2 0  9996
2 10714 103.3721 147.7109 0567308 208.7656 311.5846 11.54581818103086
Epoch: 2026-09-12T04:41Z
TLE epoch observation values (Epoch: 2026-09-12T04:41:31.128Z)
Latitude
24.0568°
Longitude
-87.81476°
Altitude
1,597.645 km
Speed
7.198 km/s
True Right ascension
22h 15m 05s
True Declination
23° 56' 33"
Sunlit
Object was in full shadow at epoch
Visualization orbit readout
Latitude
Unknown
Longitude
Unknown
Altitude
Unknown
Speed
Unknown
Apparent Right ascension
Unknown
Apparent Declination
Unknown
Sunlit
N/A
Visualization observer readout
Local Sidereal Time
22:29:25
Azimuth
Unknown
Elevation
Unknown
Doppler factor
Unknown
Orbital elements
Apogee altitude
2,357.582 km
Perigee altitude
1,419.625 km
Semi-major axis
8,266.741 km
Eccentricity
0.05673
Inclination
103.3721°
RAAN
147.7109°
Arg. of periapsis
208.7656°
True anomaly
306.4892°
Mean anomaly
311.5846°
Eccentric anomaly
309.06071°
Mean motion
2.88763 °/min
Orbital period
124.67 mins
BSTAR
0.0065542
Loading maneuver chart data...
Computing Atmospheric mass density...
Loading historical data...
Loading historical data...
Loading historical data...
Loading historical data...
Loading historical data...
Loading historical data...
Loading historical data...

Documentation

Showing up to 5 results
|